sat.trackr.live / text

‹ back to catalog

STARLINK-5487

NORAD 55652 · 2023-021AA

PAYLOAD ACTIVE UNKNOWN

§ Identity

Operator
Country
US
Launch date
2023-02-17
Launch site
AFWTR
Launch vehicle
Mass (kg)
RCS (m²)

Purposes: comms

External: N2YO · Heavens-Above · Gunter

§ Orbital elements

Epoch: 2026-05-25T00:00:47.539008Z

Period
96.11 min
Inclination
69.9994°
Eccentricity
0.0002978
Mean motion
14.98325572 rev/d
Perigee alt
570.0 km
Apogee alt
574.1 km
Semi-major
6,950.2 km
B*
5.5887e-5
RAAN
351.9844°
Arg perigee
267.7618°
Mean anomaly
92.3200°
Rev number
18,022

§ Raw data

STARLINK-54871 55652U 23021AA  26145.00055022  .00000574  00000+0  55887-4 0  99952 55652  69.9994 351.9844 0002978 267.7618  92.3200 14.98325572180223

JSON: /api/v1/satellites/55652 · /tle

For live sub-satellite position, see the globe view (requires WebGL).

§ Visibility from observer

Set your observer location to see the next 7 days of passes ≥ 10°. The values pass through the URL so the page stays shareable.

No JS? Fill the form by hand. The geolocation button needs JavaScript.